Time,TemperatureF,DewpointF,PressureIn,WindDirection,WindDirectionDegrees,WindSpeedMPH,WindSpeedGustMPH,Humidity,HourlyPrecipIn,Conditions,Clouds,dailyrainin,SoftwareType,DateUTC
2013-03-02 00:02:00,30.0,26.0,29.96,East,101,1.0,7.0,85,0.00,,,0.01,,2013-03-02 05:02:00,
2013-03-02 00:12:00,30.0,26.0,29.96,East,101,1.0,7.0,85,0.00,,,0.01,,2013-03-02 05:12:00,
2013-03-02 00:22:00,30.0,26.0,29.96,East,101,0.0,3.0,86,0.00,,,0.01,,2013-03-02 05:22:00,
2013-03-02 00:32:00,30.0,26.0,29.96,South,187,4.0,8.0,85,0.00,,,0.01,,2013-03-02 05:32:00,
2013-03-02 00:42:00,30.0,26.0,29.96,South,187,4.0,8.0,85,0.00,,,0.01,,2013-03-02 05:42:00,
2013-03-02 00:52:00,30.0,26.0,29.96,SE,126,2.0,8.0,85,0.00,,,0.01,,2013-03-02 05:52:00,
2013-03-02 01:01:00,30.0,26.0,29.95,SE,141,1.0,7.0,85,0.00,,,0.01,,2013-03-02 06:01:00,
2013-03-02 01:11:00,30.0,26.0,29.95,SE,141,1.0,7.0,85,0.00,,,0.01,,2013-03-02 06:11:00,
2013-03-02 01:21:00,30.0,26.0,29.95,South,182,1.0,8.0,85,0.00,,,0.01,,2013-03-02 06:21:00,
2013-03-02 01:32:00,30.0,26.0,29.95,SSE,160,1.0,4.0,85,0.00,,,0.01,,2013-03-02 06:32:00,
2013-03-02 01:42:00,30.0,26.0,29.95,SSE,160,1.0,4.0,85,0.00,,,0.01,,2013-03-02 06:42:00,
2013-03-02 01:52:00,30.0,26.0,29.95,ESE,122,0.0,9.0,86,0.00,,,0.01,,2013-03-02 06:52:00,
2013-03-02 02:01:00,29.0,25.0,29.95,ESE,121,1.0,6.0,85,0.00,,,0.01,,2013-03-02 07:01:00,
2013-03-02 02:11:00,29.0,25.0,29.95,ESE,121,1.0,6.0,85,0.00,,,0.01,,2013-03-02 07:11:00,
2013-03-02 02:21:00,29.0,25.0,29.95,SSE,150,1.0,5.0,85,0.00,,,0.01,,2013-03-02 07:21:00,
2013-03-02 02:32:00,29.0,25.0,29.95,ESE,111,0.0,2.0,86,0.00,,,0.01,,2013-03-02 07:32:00,
2013-03-02 02:42:00,29.0,25.0,29.95,ESE,111,0.0,2.0,86,0.00,,,0.01,,2013-03-02 07:42:00,
2013-03-02 02:52:00,29.0,26.0,29.94,ESE,111,0.0,1.0,87,0.00,,,0.01,,2013-03-02 07:52:00,
2013-03-02 03:01:00,29.0,25.0,29.94,ESE,105,0.0,3.0,86,0.00,,,0.01,,2013-03-02 08:01:00,
2013-03-02 03:11:00,29.0,25.0,29.94,ESE,105,0.0,3.0,86,0.00,,,0.01,,2013-03-02 08:11:00,
2013-03-02 03:22:00,29.0,26.0,29.93,SSE,163,0.0,11.0,87,0.00,,,0.01,,2013-03-02 08:22:00,
2013-03-02 03:32:00,29.0,26.0,29.93,SE,124,0.0,2.0,87,0.00,,,0.01,,2013-03-02 08:32:00,
2013-03-02 03:42:00,29.0,26.0,29.93,SE,124,0.0,2.0,87,0.00,,,0.01,,2013-03-02 08:42:00,
2013-03-02 03:52:00,29.0,26.0,29.93,East,82,0.0,2.0,87,0.00,,,0.01,,2013-03-02 08:52:00,
2013-03-02 04:02:00,29.0,26.0,29.92,East,83,0.0,2.0,87,0.00,,,0.01,,2013-03-02 09:02:00,
2013-03-02 04:11:00,29.0,26.0,29.92,East,83,0.0,1.0,87,0.00,,,0.01,,2013-03-02 09:11:00,
2013-03-02 04:22:00,29.0,26.0,29.92,East,83,0.0,1.0,87,0.00,,,0.01,,2013-03-02 09:22:00,
2013-03-02 04:32:00,29.0,26.0,29.91,SE,131,0.0,4.0,87,0.00,,,0.01,,2013-03-02 09:32:00,
2013-03-02 04:42:00,29.0,26.0,29.91,SE,131,0.0,4.0,87,0.00,,,0.01,,2013-03-02 09:42:00,
2013-03-02 04:52:00,29.0,26.0,29.91,ESE,102,0.0,3.0,87,0.00,,,0.01,,2013-03-02 09:52:00,
2013-03-02 05:01:00,29.0,26.0,29.91,ENE,72,0.0,8.0,87,0.00,,,0.01,,2013-03-02 10:01:00,
2013-03-02 05:16:00,29.0,26.0,29.91,ENE,72,0.0,8.0,87,0.00,,,0.01,,2013-03-02 10:16:00,
2013-03-02 05:22:00,29.0,26.0,29.91,ENE,70,0.0,3.0,89,0.00,,,0.01,,2013-03-02 10:22:00,
2013-03-02 05:32:00,29.0,26.0,29.91,ENE,70,0.0,1.0,89,0.00,,,0.01,,2013-03-02 10:32:00,
2013-03-02 05:43:00,29.0,26.0,29.91,ENE,70,0.0,1.0,89,0.00,,,0.01,,2013-03-02 10:43:00,
2013-03-02 05:52:00,28.0,25.0,29.92,ENE,70,0.0,1.0,90,0.00,,,0.01,,2013-03-02 10:52:00,
2013-03-02 06:01:00,28.0,25.0,29.92,ENE,70,1.0,3.0,90,0.00,,,0.01,,2013-03-02 11:01:00,
2013-03-02 06:11:00,28.0,25.0,29.92,ENE,70,1.0,3.0,90,0.00,,,0.01,,2013-03-02 11:11:00,
2013-03-02 06:21:00,28.0,25.0,29.92,ESE,102,0.0,2.0,88,0.00,,,0.01,,2013-03-02 11:21:00,
2013-03-02 06:32:00,28.0,25.0,29.92,East,81,1.0,5.0,88,0.00,,,0.01,,2013-03-02 11:32:00,
2013-03-02 06:42:00,28.0,25.0,29.92,East,81,1.0,5.0,88,0.00,,,0.01,,2013-03-02 11:42:00,
2013-03-02 06:52:00,28.0,25.0,29.92,East,80,0.0,1.0,90,0.00,,,0.01,,2013-03-02 11:52:00,
2013-03-02 07:02:00,28.0,26.0,29.92,East,80,0.0,1.0,91,0.00,,,0.01,,2013-03-02 12:02:00,
2013-03-02 07:11:00,28.0,26.0,29.92,East,80,0.0,1.0,91,0.00,,,0.01,,2013-03-02 12:11:00,
2013-03-02 07:22:00,28.0,25.0,29.92,SE,143,0.0,8.0,88,0.00,,,0.01,,2013-03-02 12:22:00,
2013-03-02 07:33:00,28.0,24.0,29.93,SE,131,0.0,8.0,86,0.00,,,0.01,,2013-03-02 12:33:00,
2013-03-02 07:43:00,28.0,24.0,29.93,SE,131,0.0,8.0,86,0.00,,,0.01,,2013-03-02 12:43:00,
2013-03-02 07:53:00,28.0,24.0,29.93,South,174,1.0,11.0,86,0.00,,,0.01,,2013-03-02 12:53:00,
2013-03-02 08:01:00,28.0,24.0,29.93,SE,131,0.0,2.0,83,0.00,,,0.01,,2013-03-02 13:01:00,
2013-03-02 08:11:00,28.0,24.0,29.93,SE,131,0.0,2.0,83,0.00,,,0.01,,2013-03-02 13:11:00,
2013-03-02 08:22:00,28.0,24.0,29.93,SSE,167,2.0,7.0,84,0.00,,,0.01,,2013-03-02 13:22:00,
2013-03-02 08:32:00,28.0,24.0,29.93,SSE,167,1.0,5.0,84,0.00,,,0.01,,2013-03-02 13:32:00,
2013-03-02 08:42:00,28.0,24.0,29.93,SSE,167,1.0,5.0,84,0.00,,,0.01,,2013-03-02 13:42:00,
2013-03-02 08:52:00,28.0,24.0,29.94,SSE,154,2.0,7.0,84,0.00,,,0.01,,2013-03-02 13:52:00,
2013-03-02 09:01:00,28.0,24.0,29.94,ESE,105,3.0,7.0,84,0.00,,,0.01,,2013-03-02 14:01:00,
2013-03-02 09:11:00,28.0,24.0,29.94,ESE,105,3.0,7.0,84,0.00,,,0.01,,2013-03-02 14:11:00,
2013-03-02 09:22:00,29.0,25.0,29.93,South,169,5.0,9.0,84,0.00,,,0.01,,2013-03-02 14:22:00,
2013-03-02 09:32:00,29.0,25.0,29.93,SSE,168,3.0,11.0,84,0.00,,,0.01,,2013-03-02 14:32:00,
2013-03-02 09:42:00,29.0,25.0,29.93,SSE,168,3.0,11.0,84,0.00,,,0.01,,2013-03-02 14:42:00,
2013-03-02 09:52:00,30.0,25.0,29.93,SSE,152,4.0,11.0,80,0.00,,,0.01,,2013-03-02 14:52:00,
2013-03-02 10:02:00,30.0,24.0,29.93,South,184,1.0,13.0,79,0.00,,,0.01,,2013-03-02 15:02:00,
2013-03-02 10:11:00,30.0,24.0,29.93,South,184,1.0,13.0,79,0.00,,,0.01,,2013-03-02 15:11:00,
2013-03-02 10:22:00,30.0,25.0,29.93,ESE,110,1.0,8.0,80,0.00,,,0.01,,2013-03-02 15:22:00,
2013-03-02 10:32:00,29.0,24.0,29.94,SSE,167,6.0,9.0,81,0.00,,,0.01,,2013-03-02 15:32:00,
2013-03-02 10:42:00,29.0,24.0,29.94,SSE,167,6.0,9.0,81,0.00,,,0.01,,2013-03-02 15:42:00,
2013-03-02 10:52:00,30.0,25.0,29.94,SE,141,3.0,11.0,80,0.00,,,0.01,,2013-03-02 15:52:00,
2013-03-02 11:02:00,29.0,24.0,29.94,South,171,5.0,11.0,80,0.00,,,0.01,,2013-03-02 16:02:00,
2013-03-02 11:11:00,29.0,24.0,29.94,South,171,5.0,11.0,80,0.00,,,0.01,,2013-03-02 16:11:00,
2013-03-02 11:21:00,30.0,24.0,29.95,SW,222,5.0,10.0,78,0.00,,,0.01,,2013-03-02 16:21:00,
2013-03-02 11:32:00,30.0,23.0,29.95,NE,50,1.0,9.0,76,0.00,,,0.01,,2013-03-02 16:32:00,
2013-03-02 11:42:00,30.0,23.0,29.95,NE,50,1.0,9.0,76,0.00,,,0.01,,2013-03-02 16:42:00,
2013-03-02 11:52:00,31.0,24.0,29.95,SSE,164,2.0,7.0,75,0.00,,,0.01,,2013-03-02 16:52:00,
2013-03-02 12:01:00,31.0,26.0,29.95,SE,141,2.0,10.0,80,0.00,,,0.01,,2013-03-02 17:01:00,
2013-03-02 12:11:00,31.0,26.0,29.95,SE,141,2.0,10.0,80,0.00,,,0.01,,2013-03-02 17:11:00,
2013-03-02 12:21:00,32.0,26.0,29.94,SSE,148,5.0,12.0,78,0.00,,,0.01,,2013-03-02 17:21:00,
2013-03-02 12:32:00,31.0,25.0,29.94,East,85,4.0,9.0,77,0.00,,,0.01,,2013-03-02 17:32:00,
2013-03-02 12:42:00,31.0,25.0,29.94,East,85,4.0,9.0,77,0.00,,,0.01,,2013-03-02 17:42:00,
2013-03-02 12:52:00,31.0,24.0,29.93,SSE,153,1.0,7.0,76,0.00,,,0.01,,2013-03-02 17:52:00,
2013-03-02 13:02:00,31.0,24.0,29.93,SE,142,1.0,8.0,76,0.00,,,0.01,,2013-03-02 18:02:00,
2013-03-02 13:11:00,31.0,24.0,29.93,SE,142,1.0,8.0,76,0.00,,,0.01,,2013-03-02 18:11:00,
2013-03-02 13:22:00,32.0,25.0,29.92,East,86,0.0,3.0,76,0.00,,,0.01,,2013-03-02 18:22:00,
2013-03-02 13:32:00,34.0,27.0,29.91,SW,219,2.0,8.0,75,0.00,,,0.01,,2013-03-02 18:32:00,
2013-03-02 13:42:00,34.0,27.0,29.91,SW,219,2.0,8.0,75,0.00,,,0.01,,2013-03-02 18:42:00,
2013-03-02 13:52:00,34.0,25.0,29.91,SSE,152,4.0,9.0,69,0.00,,,0.01,,2013-03-02 18:52:00,
2013-03-02 14:01:00,33.0,25.0,29.91,SSW,213,3.0,9.0,71,0.00,,,0.01,,2013-03-02 19:01:00,
2013-03-02 14:12:00,33.0,25.0,29.91,SSW,213,3.0,9.0,71,0.00,,,0.01,,2013-03-02 19:12:00,
2013-03-02 14:22:00,33.0,26.0,29.91,North,356,0.0,6.0,74,0.00,,,0.01,,2013-03-02 19:22:00,
2013-03-02 14:32:00,31.0,26.0,29.91,ESE,104,3.0,7.0,82,0.00,,,0.01,,2013-03-02 19:32:00,
2013-03-02 14:42:00,31.0,26.0,29.91,ESE,104,3.0,7.0,82,0.00,,,0.01,,2013-03-02 19:42:00,
2013-03-02 14:52:00,29.0,26.0,29.91,SE,132,3.0,6.0,87,0.00,,,0.01,,2013-03-02 19:52:00,
2013-03-02 15:01:00,30.0,26.0,29.91,SSW,198,2.0,10.0,84,0.00,,,0.01,,2013-03-02 20:01:00,
2013-03-02 15:11:00,30.0,26.0,29.91,SSW,198,2.0,10.0,84,0.00,,,0.01,,2013-03-02 20:11:00,
2013-03-02 15:22:00,30.0,25.0,29.92,East,79,4.0,10.0,81,0.00,,,0.00,,2013-03-02 20:22:00,
2013-03-02 15:32:00,30.0,25.0,29.91,East,91,3.0,14.0,80,0.00,,,0.00,,2013-03-02 20:32:00,
2013-03-02 15:42:00,30.0,25.0,29.91,East,91,3.0,14.0,80,0.00,,,0.00,,2013-03-02 20:42:00,
2013-03-02 15:53:00,30.0,25.0,29.92,SSE,161,3.0,10.0,80,0.00,,,0.00,,2013-03-02 20:53:00,
2013-03-02 16:02:00,29.0,24.0,29.92,East,86,5.0,12.0,81,0.00,,,0.00,,2013-03-02 21:02:00,
2013-03-02 16:11:00,29.0,24.0,29.92,East,86,5.0,12.0,81,0.00,,,0.00,,2013-03-02 21:11:00,
2013-03-02 16:22:00,29.0,24.0,29.92,East,83,1.0,5.0,82,0.00,,,0.00,,2013-03-02 21:22:00,
2013-03-02 16:32:00,29.0,24.0,29.93,ENE,60,1.0,4.0,81,0.00,,,0.00,,2013-03-02 21:32:00,
2013-03-02 16:42:00,29.0,24.0,29.93,ENE,60,1.0,4.0,81,0.00,,,0.00,,2013-03-02 21:42:00,
2013-03-02 16:52:00,29.0,23.0,29.93,SE,129,6.0,14.0,78,0.00,,,0.00,,2013-03-02 21:52:00,
2013-03-02 17:02:00,29.0,23.0,29.93,ENE,75,5.0,14.0,79,0.00,,,0.00,,2013-03-02 22:02:00,
2013-03-02 17:11:00,29.0,23.0,29.93,ENE,75,5.0,14.0,79,0.00,,,0.00,,2013-03-02 22:11:00,
2013-03-02 17:22:00,28.0,23.0,29.93,East,90,3.0,9.0,81,0.00,,,0.00,,2013-03-02 22:22:00,
2013-03-02 17:32:00,28.0,23.0,29.93,NE,39,2.0,7.0,82,0.00,,,0.00,,2013-03-02 22:32:00,
2013-03-02 17:42:00,28.0,23.0,29.93,NE,39,2.0,7.0,82,0.00,,,0.00,,2013-03-02 22:42:00,
2013-03-02 17:52:00,28.0,24.0,29.94,ESE,106,1.0,5.0,83,0.00,,,0.00,,2013-03-02 22:52:00,
2013-03-02 18:01:00,28.0,24.0,29.94,SW,216,4.0,13.0,83,0.00,,,0.00,,2013-03-02 23:01:00,
2013-03-02 18:11:00,27.0,23.0,29.95,SSW,203,3.0,13.0,84,0.00,,,0.00,,2013-03-02 23:11:00,
2013-03-02 18:21:00,27.0,23.0,29.95,SSW,203,3.0,13.0,84,0.00,,,0.00,,2013-03-02 23:21:00,
2013-03-02 18:32:00,27.0,23.0,29.96,SSE,151,1.0,7.0,86,0.00,,,0.00,,2013-03-02 23:32:00,
2013-03-02 18:42:00,27.0,23.0,29.96,SSE,151,1.0,7.0,86,0.00,,,0.00,,2013-03-02 23:42:00,
2013-03-02 18:52:00,27.0,23.0,29.96,ESE,114,3.0,9.0,85,0.00,,,0.00,,2013-03-02 23:52:00,
2013-03-02 19:02:00,27.0,23.0,29.96,SE,127,3.0,9.0,84,0.00,,,0.00,,2013-03-03 00:02:00,
2013-03-02 19:11:00,27.0,23.0,29.96,SE,127,3.0,9.0,84,0.00,,,0.00,,2013-03-03 00:11:00,
2013-03-02 19:22:00,26.0,22.0,29.97,SSE,158,2.0,9.0,84,0.00,,,0.00,,2013-03-03 00:22:00,
2013-03-02 19:32:00,26.0,22.0,29.98,SE,128,3.0,11.0,84,0.00,,,0.00,,2013-03-03 00:32:00,
2013-03-02 19:42:00,26.0,22.0,29.98,SE,128,3.0,11.0,84,0.00,,,0.00,,2013-03-03 00:42:00,
2013-03-02 19:52:00,25.0,21.0,29.98,SW,215,1.0,12.0,85,0.00,,,0.00,,2013-03-03 00:52:00,
2013-03-02 20:01:00,25.0,21.0,29.98,South,170,1.0,8.0,84,0.00,,,0.00,,2013-03-03 01:01:00,
2013-03-02 20:11:00,25.0,21.0,29.98,South,170,1.0,8.0,84,0.00,,,0.00,,2013-03-03 01:11:00,
2013-03-02 20:21:00,25.0,21.0,29.99,SE,125,2.0,7.0,83,0.00,,,0.00,,2013-03-03 01:21:00,
2013-03-02 20:32:00,25.0,20.0,29.99,ESE,113,3.0,8.0,81,0.00,,,0.00,,2013-03-03 01:32:00,
2013-03-02 20:42:00,25.0,20.0,29.99,ESE,113,3.0,8.0,81,0.00,,,0.00,,2013-03-03 01:42:00,
2013-03-02 20:52:00,24.0,19.0,29.99,SSE,161,0.0,8.0,82,0.00,,,0.00,,2013-03-03 01:52:00,
2013-03-02 21:01:00,24.0,19.0,29.99,ENE,76,6.0,13.0,80,0.00,,,0.00,,2013-03-03 02:01:00,
2013-03-02 21:11:00,24.0,19.0,29.99,ENE,76,6.0,13.0,80,0.00,,,0.00,,2013-03-03 02:11:00,
2013-03-02 21:21:00,24.0,20.0,30.00,ENE,68,1.0,5.0,84,0.00,,,0.00,,2013-03-03 02:21:00,
2013-03-02 21:32:00,24.0,20.0,30.01,ENE,70,2.0,6.0,86,0.00,,,0.00,,2013-03-03 02:32:00,
2013-03-02 21:42:00,24.0,20.0,30.01,ENE,70,2.0,6.0,86,0.00,,,0.00,,2013-03-03 02:42:00,
2013-03-02 21:52:00,24.0,20.0,30.01,ENE,68,1.0,4.0,86,0.00,,,0.00,,2013-03-03 02:52:00,
2013-03-02 22:01:00,24.0,20.0,30.01,South,170,0.0,5.0,85,0.00,,,0.00,,2013-03-03 03:01:00,
2013-03-02 22:11:00,24.0,20.0,30.01,South,170,0.0,5.0,85,0.00,,,0.00,,2013-03-03 03:11:00,
2013-03-02 22:22:00,23.0,19.0,30.01,East,91,2.0,6.0,84,0.00,,,0.00,,2013-03-03 03:22:00,
2013-03-02 22:32:00,23.0,18.0,30.01,ESE,116,1.0,12.0,81,0.00,,,0.00,,2013-03-03 03:32:00,
2013-03-02 22:42:00,23.0,18.0,30.01,ESE,116,1.0,12.0,81,0.00,,,0.00,,2013-03-03 03:42:00,
2013-03-02 22:52:00,23.0,18.0,30.01,SSE,168,2.0,8.0,82,0.00,,,0.00,,2013-03-03 03:52:00,
2013-03-02 23:01:00,23.0,19.0,30.02,SE,126,0.0,10.0,83,0.00,,,0.00,,2013-03-03 04:01:00,
2013-03-02 23:11:00,23.0,19.0,30.02,SE,126,0.0,10.0,83,0.00,,,0.00,,2013-03-03 04:11:00,
2013-03-02 23:21:00,23.0,19.0,30.01,East,81,3.0,8.0,85,0.00,,,0.00,,2013-03-03 04:21:00,
2013-03-02 23:32:00,23.0,19.0,30.01,NE,41,1.0,5.0,83,0.00,,,0.00,,2013-03-03 04:32:00,
2013-03-02 23:42:00,23.0,19.0,30.01,NE,41,1.0,5.0,83,0.00,,,0.00,,2013-03-03 04:42:00,
2013-03-02 23:52:00,23.0,19.0,30.01,ESE,113,0.0,8.0,83,0.00,,,0.00,,2013-03-03 04:52:00,